Location: Добрич
(43.6638°N, 27.9002°E)
Time: 05:07:52
(UTC+03:00)

ISS - Pass Details

Date: 18 April 2026
Orbit: 414 x 424 km, 51.6° (Epoch: 15 May)

Event Time Altitude Azimuth Distance (km) Brightness Sun altitude
Exits shadow 04:52:58 - 170° (S) 1,605 -1.0 -15.4°
Reaches altitude 10° 04:53:27 10° 163° (SSE) 1,490 -1.1 -15.3°
Maximum altitude 04:55:13 14° 131° (SE) 1,292 -1.1 -15.0°
Drops below altitude 10° 04:56:59 10° 100° (E) 1,500 -0.2 -14.8°
Sets 04:59:52 0° 73° (ENE) 2,372 1.7 -14.3°
